Location: Unspecified
(0.0000°N, 0.0000°E)
Time: 00:05:16
(UTC+00:00)

Hubble Space Telescope - Visible Passes

Search period start: 29 May 2017 00:00
Search period end: 08 June 2017 00:00
Orbit: 538 x 542 km, 28.5° (Epoch: 27 May)

Date Brightness Start Highest point End Pass type
(mag) Time Alt. Az. Time Alt. Az. Time Alt. Az.
29 May 0.7 04:21:50 70° NW 04:22:17 86° NNE 04:26:26 10° ESE visible
30 May 1.7 04:13:35 39° SE 04:13:35 39° SE 04:16:21 10° SE visible
31 May 3.1 04:05:12 16° SE 04:05:12 16° SE 04:06:09 10° SE visible
